Other Public Products
Issued by NWS Grand Forks, ND

Home | Current Version | Previous Version | Text Only | Print | Product List | Glossary Off
Versions: 1 2 3 4 5 6 7 8 9 10 11 12 13 14 15 16 17 18 19 20 21 22 23 24 25 26 27 28 29 30 31 32 33 34 35 36 37 38 39 40 41 42 43 44 45 46 47 48 49 50

000
FPUS83 KFGF 010110
OPUFGF
PRAIRIE TO PINES WEATHER ROUNDUP
NATIONAL WEATHER SERVICE EASTERN NORTH DAKOTA/GRAND FORKS ND
800 PM CDT FRI JUL 31 2015

 **SATELLITE DATA USED TO AUGMENT SKY COVER AT AUTOMATED STATIONS**
 *****  WEATHER ACROSS EASTERN NORTH DAKOTA  *****

CITY           SKY/WX    TMP DP  RH WIND       PRES   REMARKS
GRAND FORKS    CLEAR     77  54  44 NW7       29.96S
GRAND FORKS AF CLEAR     75  53  46 NW7       29.97F
GRAND CITY NWS   N/A     75 N/A N/A NW7         N/A
BUXTON         NOT AVBL
DEVILS LAKE    SUNNY     75  52  43 NW7       30.00S
FARGO          CLEAR     79  58  48 N6        29.97F
WAHPETON ARPT  CLEAR     79  52  38 NW5       29.98F
$$

 *****  WEATHER ACROSS CENTRAL AND WESTERN NORTH DAKOTA  *****

CITY           SKY/WX    TMP DP  RH WIND       PRES   REMARKS
JAMESTOWN      SUNNY     76  59  55 N6        30.00F
BISMARCK       SUNNY     83  55  38 NE8       30.02F
MINOT          SUNNY     78  50  37 NW7       30.02F
MINOT AFB      SUNNY     83  51  32 NW6       30.01F
GARRISON         N/A     79  57  46 NE5       30.03F
WILLISTON      SUNNY     87  46  24 NE8       30.01F
DICKINSON      SUNNY     81  57  43 E6        30.03F
HETTINGER      SUNNY     88  40  18 CALM      30.07F
$$

 *****  OTHER OBSERVATIONS NORTHEAST NORTH DAKOTA  *****

CITY           SKY/WX    TMP DP  RH WIND       PRES   REMARKS
WALHALLA       FAIR      73  54  49 MISG      29.97S
LANGDON        FAIR      73  54  49 W7        30.01S
CAVALIER       FAIR      75  54  46 NW6       29.96S
GRAFTON        FAIR      75  52  43 NW8       29.97S
CANDO          NOT AVBL
FORT TOTTEN      N/A     75  52  44 NW2       29.95S
ROLLA          FAIR      68  54  60 NW8       30.03F
RUGBY          NOT AVBL
 ***** THE ABOVE OBSERVATIONS ARE NON NWS ARE NOT QUALITY
        CONTROLLED AND MAY MIS-REPORT RAIN FOR SNOW...
$$

 *****  OTHER OBSERVATIONS SOUTHEAST NORTH DAKOTA *****

CITY           SKY/WX    TMP DP  RH WIND       PRES   REMARKS
COOPERSTOWN    NOT AVBL
VALLEY CITY    FAIR      77  59  53 N6        30.00S
OAKES            N/A     81  64  57 NW6       29.99F
GWINNER        FAIR      81  64  57 SW5       29.99F
SHEYENNE NWR     N/A     83  60  44 CALM      29.95S
BUFFALO        NOT AVBL
WYNDMERE       NOT AVBL
 ***** THE ABOVE OBSERVATIONS ARE NON NWS ARE NOT QUALITY
       CONTROLLED AND MAY MIS-REPORT RAIN FOR SNOW...
$$

  *****  WEATHER ACROSS NORTHERN MINNESOTA  *****

CITY           SKY/WX    TMP DP  RH WIND       PRES   REMARKS
FLAG ISLAND    PTCLDY    72  54  53 W17       29.90S
WARROAD        CLEAR     72  54  53 W7        29.94S
ROSEAU         CLEAR     72  55  56 NW8       29.95S
HALLOCK        CLEAR     73  54  49 NW5       29.94F
THF RVR FALLS  MOCLDY    73  50  43 NW7       29.97S
HALSTAD        NOT AVBL
FOSSTON        CLEAR     73  50  43 CALM      29.98S
BAUDETTE       CLEAR     71  49  45 NW15      29.93R
WASKISH        CLEAR     72  52  49 W16G24    29.95R
CROOKSTON      CLEAR     75  55  50 NW6       29.97S
$$
  *****  WEATHER ACROSS CENTRAL AND WEST MINNESOTA  *****

CITY           SKY/WX    TMP DP  RH WIND       PRES   REMARKS
BEMIDJI        CLEAR     73  49  43 NW14      29.97S
PARK RAPIDS    CLEAR     74  50  42 NW9       29.98F
WADENA         CLEAR     75  54  46 NW5       29.99S
DETROIT LAKES  CLEAR     75  55  50 NW8       30.00F
MOORHEAD       CLEAR     75  61  60 N3        29.98S
FERGUS FALLS   CLEAR     75  61  60 N5        29.97F
ELBOW LAKE     FAIR      76  62  62 CALM      29.99F
MORRIS MN      CLEAR     79  63  57 CALM      29.99F
STAPLES        PTCLDY    73  54  49 NW7       29.99S
WHEATON        CLEAR     79  63  57 CALM      30.00F
$$
  *****  WEATHER ELSEWHERE ACROSS MINNESOTA  *****

CITY           SKY/WX    TMP DP  RH WIND       PRES   REMARKS
DULUTH         PTCLDY    73  48  41 NW13      29.92S
INTRNTL FALLS  PTCLDY    71  51  49 W10G22    29.90S
ELY            MOCLDY    64  55  72 NW3       29.90R
CLOQUET        CLEAR     73  45  35 W8        29.93F
BRAINERD       CLEAR     76  48  37 NW9       29.98S
HIBBING        CLEAR     72  47  40 W12       29.92F
ALEXANDRIA     CLEAR     76  57  51 NW6       30.02F
SAINT CLOUD    CLEAR     77  54  44 NW9       29.98F
MINNEAPOLIS    PTCLDY    79  54  41 W12G21    29.98S
$$

  *****  WEATHER ACROSS SOUTH DAKOTA  *****

CITY           SKY/WX    TMP DP  RH WIND       PRES   REMARKS
SIOUX FALLS    PTCLDY    80  60  50 CALM      30.05F
BROOKINGS      CLEAR     79  61  53 SW5       30.06F
WATERTOWN      CLEAR     77  63  61 SW5       30.03F
HURON          CLEAR     83  62  49 CALM      30.02F
SISSETON         N/A     80  65  59 CALM      29.98F
ABERDEEN       CLEAR     84  57  39 NW10      30.00S
MITCHELL       CLEAR     80  64  58 SE6       30.05R
PIERRE         SUNNY     89  49  25 CALM      30.03S
MOBRIDGE       SUNNY     86  56  35 NE6       30.01F
RAPID CITY     MOSUNNY   80  56  43 NE10      30.10F
$$

  *****  SOME WEATHER IN NEARBY STATES *****

CITY           SKY/WX    TMP DP  RH WIND       PRES   REMARKS
GLASGOW MT     SUNNY     92  40  16 W10       29.97F
GREAT FALLS MT SUNNY     89  27  10 S3        30.07F
CHEYENNE WY    SUNNY     78  48  34 E8        30.28F
SCOTTSBLUFF NE SUNNY     84  58  40 NE7       30.13F
OMAHA NE       MOCLDY    86  75  69 E5        30.01F HX  95
DES MOINES IA  PTCLDY    84  59  42 E6        30.03S
DAVENPORT IA   CLEAR     74  61  63 W5        30.02R
CHICAGO IL     CLEAR     80  48  32 NW10      29.94R
EAU CLAIRE WI  CLEAR     74  52  46 W7        29.95S
LA CROSSE WI   CLEAR     77  55  46 W5        29.97R
$$

  *****  SOME NATIONAL WEATHER *****

CITY           SKY/WX    TMP DP  RH WIND       PRES   REMARKS
LA GUARDIA NY  FAIR      85  52  32 CALM      29.80R
RALEIGH NC     FAIR      79  63  57 CALM      29.94R
ATLANTA GA     MOCLDY    77  71  82 SW7       29.95R
NEW ORLEANS LA PTCLDY    89  70  53 NE16      29.88R HX  94
OKLAHOMA CITY  LGT RAIN  75  73  93 S6        30.07R
ALBUQUERQUE NM CLOUDY    75  57  53 N14       30.27R
SALT LAKE CITY MOSUNNY   92  22   8 N8        30.10F
LOS ANGELES CA MOSUNNY   73  66  78 W15       29.95F
BOISE ID       SUNNY     97  38  13 W10       30.02F HX  92
SEATTLE WA     MOSUNNY   92  43  18 W7        30.00F
$$

*** WEATHER ACROSS MANITOBA...SASKATCHEWAN AND ONTARIO ***
                ***ONTARIO***

CITY           SKY/WX    TMP DP  RH WIND       PRES   REMARKS
GERALDTON      MOCLDY    59  57  94 W7        29.74S
THUNDER BAY    MOCLDY    66  57  72 NW6       29.81R
SIOUX LOOKOUT  MOCLDY    63  57  82 W6        29.84F
TORONTO        MOCLDY    77  55  47 NW13      29.76S
BIG TROUT LK   PTCLDY    64  50  59 NW6       29.65S
PICKLE LAKE    MOCLDY    64  54  68 W15G33    29.74R
DRYDEN         CLOUDY    61  55  82 NW6       29.88R
KENORA         MOCLDY    68  55  64 NW7       29.90S
$$
                *** MANITOBA***

CITY           SKY/WX    TMP DP  RH WIND       PRES   REMARKS
BRANDON        MOSUNNY   73  54  49 NW9       30.00S
DAUPHIN        SUNNY     72  54  53 NW7       29.95S
ISLAND LAKE    PTCLDY    66  57  72 W14       29.76S
PILOT MOUND      N/A     70  54  56 NW7         N/A
THE PAS        MOSUNNY   73  52  46 NW12G17   29.89F
THOMPSON       NOT AVBL
WINNIPEG       PTCLDY    72  59  64 W6        29.93F
LYNN LAKE      PTSUNNY   61  55  82 W5        29.84F
CHURCHILL      LGT RAIN  55  52  88 N13G24    29.64F
GILLAM         PTSUNNY   68  50  52 N14       29.67F
$$
                ***SASKATCHEWAN***

CITY           SKY/WX    TMP DP  RH WIND       PRES   REMARKS
ESTEVAN        MOSUNNY   79  48  34 NW7       30.04F
KINDERSLEY     MOSUNNY   79  52  38 SE9       29.99F
LLOYDMINSTER   PTSUNNY   75  52  43 S6        29.97F
PRINCE ALBERT  PTSUNNY   77  52  41 NW10      29.96F
REGINA         MOSUNNY   81  50  34 NW3       30.04F


USA.gov is the U.S. government's official web portal to all federal, state and local government web resources and services.